Flag for U.S.A. Weather past 2 weeks in Worcester, Massachusetts, U.S.A.

Now
31 °F

Light snow. Ice fog.


Feels Like: 23 °F
Forecast: 29 / 37 °F
Wind: 8 mph from Northeast

Location: Worcester Regional Airport

Current Time: Mar 28, 2015 at 3:01:48 PM

Latest Report: Mar 28, 2015 at 1:59 PM


Visibility: 1 mi

Pressure: 29.73 "Hg

Humidity: 89%

Dew point: 28 °F

Location of WorcesterLocation

Historic Weather in Worcester — Graph

°F

Worcester temperature yesterday

Maximum temperature yesterday: 40 °F (at 12:54 AM)
Minimum temperature yesterday: 35 °F (at 8:04 AM)
Average temperature yesterday: 38 °F

Past Weeks' High & Low Weather Summary

 TemperatureHumidityPressure
High47 °F (Mar 26, 12:54 PM)97% (Mar 14, 11:54 AM)30.53 "Hg (Mar 14, 11:54 AM)
Low12 °F (Mar 23, 6:54 AM)20% (Mar 13, 2:54 PM)29.41 "Hg (Mar 17, 2:54 PM)
Average31 °F60%29.97 "Hg
* Reported Mar 13 1:54 PM — Mar 28 1:59 PM, Worcester, Weather by CustomWeather, © 2015

Note: Actual official high and low records may vary slightly from our data, if they occured in-between our weather recording intervals... More about our weather records

Advertising

Worcester weather history for previous 24 hours

 ConditionsComfort  
Time TempWeatherWind HumidityBarometerVisibility
1:59 PM
Sat, Mar 28
31 °FLight snow. Ice fog.8 mph89%29.73 "Hg1 mi
12:54 PM32 °FLight snow. Mostly cloudy.12 mph82%29.75 "Hg1 mi
11:54 AM31 °FLight snow. Ice fog.13 mph85%29.76 "Hg1 mi
10:54 AM31 °FSnow. Ice fog.12 mph89%29.77 "Hg1 mi
9:58 AM31 °FLight snow. Ice fog.13 mph89%29.73 "Hg1 mi
8:54 AM32 °FLight snow. Mostly cloudy.12 mph82%29.74 "Hg2 mi
7:54 AM33 °FLight snow. Overcast.8 mph75%29.74 "Hg9 mi
6:54 AM34 °FOvercast.9 mph73%29.72 "Hg10 mi
5:54 AM34 °FOvercast.10 mph76%29.70 "Hg10 mi
5:04 AM34 °FMostly cloudy.12 mph76%29.69 "Hg10 mi
4:54 AM34 °FMostly cloudy.12 mph76%29.71 "Hg10 mi
3:54 AM35 °FMostly cloudy.8 mph75%29.71 "Hg10 mi
2:54 AM35 °FMostly cloudy.9 mph72%29.72 "Hg10 mi
1:54 AM36 °FMostly cloudy.7 mph70%29.75 "Hg10 mi
12:54 AM37 °FMostly cloudy.9 mph67%29.74 "Hg10 mi
11:54 PM
Fri, Mar 27
37 °FOvercast.8 mph67%29.75 "Hg10 mi
10:54 PM37 °FPassing clouds.9 mph73%29.74 "Hg10 mi
9:54 PM37 °FOvercast.6 mph79%29.76 "Hg10 mi
8:54 PM37 °FOvercast.7 mph82%29.75 "Hg10 mi
7:54 PM38 °FMore clouds than sun.6 mph79%29.74 "Hg10 mi
7:03 PM39 °FMore clouds than sun.6 mph79%29.69 "Hg10 mi
6:54 PM39 °FMostly cloudy.6 mph79%29.72 "Hg10 mi
5:54 PM40 °FOvercast.5 mph73%29.71 "Hg10 mi
4:54 PM40 °FMostly cloudy.No wind83%29.70 "Hg10 mi
3:54 PM40 °FMostly cloudy.3 mph83%29.68 "Hg10 mi
Weather by CustomWeather, © 2015

See weather overviewHow to use our weather pages